Weather in Azovske

Ukraine / Kherson District     46°15′45″N   34°52′00″E
temp.,
°C
wind,
m/s
gust,
m/s
humid.,
%
clouds,
%
prec.,
mm/h
press.,
hPa
HPBL,
m
2 july, sat
sat200:00+21nne48450 0.0 1015130
03:00+19nne510570 0.0 1015202
06:00+18nne59670 0.0 1016222
09:00+23ne67464 0.0 1018875
12:00+26ne56280 0.0 10181778
15:00+27e35260 0.0 10181903
18:00+26ne25270 0.0 10181483
21:00+21n510330 0.0 1018219
3 july, sun
sun300:00+18nne59460 0.0 1020199
03:00+17nne46560 0.0 1019119
06:00+16nne47610 0.0 1019149
09:00+23nne55450 0.0 10191056
12:00+26ne34340 0.0 10191768
15:00+26s43415 0.0 10181006
18:00+26ssw233921 0.0 10171047
21:00+23w334895 0.0 101737
4 july, mon
mon400:00+21n344949 0.0 101756
03:00+20nne45550 0.0 101790
06:00+20nne35584 0.0 1018103
09:00+26ne33425 0.0 1018709
12:00+28sse24375 0.0 10181997
15:00+28s65414 0.0 1016927
18:00+28sse33410 0.0 1016430
21:00+25wnw33454 0.0 101637
5 july, tue
tue500:00+24n46474 0.0 1016102
03:00+22nne59530 0.0 1016143
06:00+22ne47550 0.0 1016126
09:00+27ene55480 0.0 1017523
12:00+28e76490 0.0 10171123
15:00+28ese67480 0.0 1017667
18:00+27se56480 0.0 1016431
21:00+24e22610 0.0 101616
6 july, wed
wed600:00+23nne33530 0.0 101638
03:00+22ne48540 0.0 1016115
06:00+22ne58570 0.0 1016165
09:00+27e67470 0.0 1016728
12:00+28e79380 0.0 10161165
15:00+28e79350 0.0 10161226
18:00+28e57320 0.0 1015759
21:00+24ene44450 0.0 101446